OCO 2

Last updated on Sat Apr 13 2024 01:03:20 GMT+0100 (British Summer Time)

1 40059U 14035A 24103.55006977 .00000813 00000+0 19042-3 0 9990 2 40059 98.1978 45.3425 0001052 83.3028 276.8290 14.57120619520183
UTC large
Height (km)
Speed (km/s)
/
Latitude / Longitude
Inclination (degrees)
Orbital Period (minutes)
Azimuth
Elevation
Range (km)
Doppler Factor

Next 0 passes for location: London (51.5072 / 0.1276)

Sorry there are no passes over London.